Location: Newark
(33.6439°N, 114.9881°W)
Time: 16:19:39
(UTC+00:00)

Courier 1B - Visible Passes

Search period start: 22 July 2019 00:00
Search period end: 01 August 2019 00:00
Orbit: 963 x 1209 km, 28.3° (Epoch: 21 July)

Date Brightness Start Highest point End Pass type
(mag) Time Alt. Az. Time Alt. Az. Time Alt. Az.
22 Jul 9.4 11:59:15 10° SSW 12:05:13 24° SSE 12:11:08 10° ESE visible
23 Jul 9.6 11:07:33 13° S 11:11:28 19° SSE 11:16:32 10° ESE visible
24 Jul 9.7 10:17:04 13° SSE 10:17:45 14° SSE 10:21:17 10° ESE visible
24 Jul 8.9 12:04:22 10° SW 12:11:18 35° SSE 12:18:11 10° E visible
25 Jul 9.0 11:13:27 19° SSW 11:17:30 29° SSE 11:23:58 10° E visible
26 Jul 9.2 10:22:54 22° SSE 10:23:44 23° SSE 10:29:32 10° ESE visible
26 Jul 8.5 12:10:03 10° SW 12:17:26 46° SSE 12:24:49 10° E visible
27 Jul 9.7 09:32:21 15° SE 09:32:21 15° SE 09:34:43 10° ESE visible
27 Jul 8.6 11:19:14 22° SW 11:23:35 40° SSE 11:30:46 10° E visible
28 Jul 8.7 10:28:40 32° S 10:29:45 33° SSE 10:36:36 10° E visible
28 Jul 8.3 12:16:05 10° WSW 12:23:40 55° S 12:31:17 10° E visible
29 Jul 9.2 09:38:06 24° SE 09:38:06 24° SE 09:42:16 10° E visible
29 Jul 8.3 11:24:58 23° SW 11:29:45 51° SSE 11:37:18 10° E visible
30 Jul 10.1 08:47:31 10° ESE 08:47:31 10° ESE 08:47:41 10° ESE visible
30 Jul 8.3 10:34:24 40° SSW 10:35:54 44° SSE 10:43:15 10° E visible
30 Jul 8.2 12:22:19 10° WSW 12:29:57 60° S 12:37:39 10° ESE visible
31 Jul 8.8 09:43:50 34° SE 09:43:50 34° SE 09:49:07 10° E visible
31 Jul 8.1 11:30:42 21° WSW 11:36:00 58° S 11:43:42 10° E visible
